FW3232 Weather Reports


time (UTC)temp
C
wind
direction
speed
KPH
gust
KPH
rain 1hr
cm
rain 24hr
cm
rain mn
cm
humidity
%
barometer
mb
20260510115911 14 0 0.0 1.6 0.00 0.00 0.00 91 1015.5
20260510115412 13 0 0.0 0.0 0.00 0.00 0.00 91 1015.4
20260510114912 13 0 0.0 3.2 0.00 0.00 0.00 91 1015.4
20260510114412 13 150 0.0 3.2 0.00 0.00 0.00 91 1015.4
20260510113911 13 339 0.0 3.2 0.00 0.00 0.00 91 1015.3
20260510113412 13 345 3.2 3.2 0.00 0.00 0.00 90 1015.3
20260510112912 14 347 0.0 3.2 0.00 0.00 0.00 89 1015.2
20260510112411 14 0 0.0 3.2 0.00 0.00 0.00 89 1015.2
20260510111911 14 0 0.0 0.0 0.00 0.00 0.00 90 1015.2
20260510111412 14 0 0.0 0.0 0.00 0.00 0.00 90 1015.2
20260510110911 14 0 0.0 0.0 0.00 0.00 0.00 89 1015.1
20260510110412 15 0 0.0 0.0 0.00 0.00 0.00 89 1015.0
20260510105911 15 0 0.0 0.0 0.00 0.00 0.00 88 1015.1
20260510105411 15 0 0.0 3.2 0.00 0.00 0.00 86 1015.1
20260510104912 15 345 1.6 3.2 0.00 0.00 0.00 85 1015.1
20260510104411 15 350 0.0 3.2 0.00 0.00 0.00 84 1015.0
20260510103911 15 335 0.0 3.2 0.00 0.00 0.00 84 1015.0
20260510103411 15 0 0.0 0.0 0.00 0.00 0.00 85 1015.0
20260510102911 15 0 0.0 1.6 0.00 0.00 0.00 85 1014.9
20260510102412 15 0 0.0 3.2 0.00 0.00 0.00 82 1014.9
20260510101911 15 345 3.2 4.8 0.00 0.00 0.00 82 1014.9
20260510101411 15 345 1.6 3.2 0.00 0.00 0.00 82 1014.9
20260510100911 15 337 1.6 4.8 0.00 0.00 0.00 82 1014.8
20260510100411 15 341 0.0 3.2 0.00 0.00 0.00 84 1014.6
20260510095912 15 7 0.0 3.2 0.00 0.00 0.00 85 1014.6
20260510095411 15 154 1.6 3.2 0.00 0.00 0.00 85 1014.6
20260510094911 15 0 0.0 3.2 0.00 0.00 0.00 81 1014.6
20260510094411 15 345 0.0 3.2 0.00 0.00 0.00 82 1014.3
20260510093911 15 343 1.6 3.2 0.00 0.00 0.00 86 1014.1
20260510093412 15 0 0.0 3.2 0.00 0.00 0.00 86 1014.1
20260510092911 15 334 1.6 4.8 0.00 0.00 0.00 85 1014.0
20260510092411 15 348 3.2 3.2 0.00 0.00 0.00 87 1013.9
20260510091911 15 0 0.0 3.2 0.00 0.00 0.00 86 1013.8
20260510091411 15 160 0.0 3.2 0.00 0.00 0.00 87 1013.8
20260510090911 15 0 0.0 1.6 0.00 0.00 0.00 86 1013.7
20260510090411 14 323 0.0 1.6 0.00 0.00 0.00 87 1013.7
20260510085911 14 0 0.0 3.2 0.00 0.00 0.00 86 1013.7
20260510085412 15 148 0.0 3.2 0.00 0.00 0.00 86 1013.8
20260510084912 14 0 0.0 1.6 0.00 0.00 0.00 85 1013.9
20260510084411 14 190 0.0 3.2 0.00 0.00 0.00 86 1014.1
20260510083911 14 341 0.0 1.6 0.00 0.00 0.00 87 1014.1
20260510083411 14 0 0.0 4.8 0.00 0.00 0.00 87 1013.9
20260510082911 13 355 0.0 3.2 0.00 0.00 0.00 89 1013.7
20260510082412 14 0 0.0 4.8 0.00 0.00 0.00 89 1013.4
20260510081911 13 0 0.0 1.6 0.00 0.00 0.00 89 1013.3
20260510081412 13 311 1.6 3.2 0.00 0.00 0.00 89 1013.4
20260510080911 13 323 0.0 1.6 0.00 0.00 0.00 89 1013.3
20260510080412 13 0 0.0 3.2 0.00 0.00 0.00 88 1013.2
20260510075912 13 0 0.0 3.2 0.00 0.00 0.00 87 1013.3
20260510075412 13 345 1.6 3.2 0.00 0.00 0.00 87 1013.2
20260510074912 13 0 0.0 0.0 0.00 0.00 0.00 87 1013.2
20260510074411 13 0 0.0 0.0 0.00 0.00 0.00 87 1013.3
20260510073911 13 0 0.0 1.6 0.00 0.00 0.00 86 1013.5
20260510073411 13 315 0.0 8.0 0.00 0.00 0.00 87 1013.5
20260510072911 13 0 0.0 0.0 0.00 0.00 0.00 86 1013.5
20260510072411 13 0 0.0 1.6 0.00 0.00 0.00 86 1013.5
20260510071911 13 355 0.0 1.6 0.00 0.00 0.00 86 1013.4
20260510071411 13 0 0.0 3.2 0.00 0.00 0.00 87 1013.4
20260510070912 13 0 0.0 1.6 0.00 0.00 0.00 87 1013.4
20260510070413 13 0 0.0 0.0 0.00 0.00 0.00 87 1013.4
20260510065911 13 0 0.0 0.0 0.00 0.00 0.00 86 1013.3
20260510065412 13 0 0.0 0.0 0.00 0.00 0.00 87 1013.4
20260510064912 13 0 0.0 0.0 0.00 0.00 0.00 86 1013.5
20260510064411 13 0 0.0 0.0 0.00 0.00 0.00 86 1013.6
20260510063912 13 0 0.0 0.0 0.00 0.00 0.00 86 1013.5
20260510063412 13 0 0.0 0.0 0.00 0.00 0.00 85 1013.6
20260510062912 13 0 0.0 0.0 0.00 0.00 0.00 85 1013.7
20260510062411 13 0 0.0 0.0 0.00 0.00 0.00 84 1013.7
20260510061911 13 0 0.0 3.2 0.00 0.00 0.00 84 1013.8
20260510061411 13 359 0.0 3.2 0.00 0.00 0.00 84 1013.8
20260510060911 13 353 1.6 3.2 0.00 0.00 0.00 83 1013.8
20260510060411 14 356 0.0 3.2 0.00 0.00 0.00 83 1013.8
20260510055911 14 0 0.0 0.0 0.00 0.00 0.00 84 1013.8
20260510055411 14 0 0.0 0.0 0.00 0.00 0.00 83 1013.8
20260510054911 14 0 0.0 1.6 0.00 0.00 0.00 80 1013.8
20260510054411 14 0 0.0 1.6 0.00 0.00 0.00 81 1013.8
20260510053911 14 0 0.0 1.6 0.00 0.00 0.00 81 1013.7
20260510053412 14 0 0.0 3.2 0.00 0.00 0.00 81 1013.7
20260510052911 14 37 0.0 3.2 0.00 0.00 0.00 82 1013.7
20260510052412 14 0 0.0 3.2 0.00 0.00 0.00 80 1013.6
20260510051912 14 339 1.6 3.2 0.00 0.00 0.00 82 1013.6
20260510051411 14 148 1.6 4.8 0.00 0.00 0.00 81 1013.7
20260510050912 14 343 1.6 3.2 0.00 0.00 0.00 79 1013.6
20260510050411 14 13 0.0 3.2 0.00 0.00 0.00 81 1013.6
20260510045911 14 0 0.0 3.2 0.00 0.00 0.00 78 1013.6
20260510045411 14 13 0.0 1.6 0.00 0.00 0.00 78 1013.6
20260510044914 15 357 0.0 1.6 0.00 0.00 0.00 80 1013.6
20260510044411 15 0 0.0 3.2 0.00 0.00 0.00 78 1013.5
20260510043911 15 0 0.0 3.2 0.00 0.00 0.00 78 1013.5
20260510043411 15 322 0.0 3.2 0.00 0.00 0.00 77 1013.4
20260510042911 15 349 3.2 3.2 0.00 0.00 0.00 77 1013.4
20260510042411 15 182 0.0 3.2 0.00 0.00 0.00 78 1013.4
20260510041911 15 0 0.0 0.0 0.00 0.00 0.00 78 1013.4
20260510041412 15 0 0.0 3.2 0.00 0.00 0.00 77 1013.4
20260510040911 15 347 3.2 4.8 0.00 0.00 0.00 76 1013.5
20260510040411 15 14 0.0 3.2 0.00 0.00 0.00 76 1013.4
20260510035911 15 341 1.6 3.2 0.00 0.00 0.00 76 1013.2
20260510035411 15 349 3.2 3.2 0.00 0.00 0.00 77 1013.2
20260510034912 15 356 3.2 3.2 0.00 0.00 0.00 76 1013.1
20260510034411 15 335 3.2 3.2 0.00 0.00 0.00 77 1013.0
20260510033911 15 348 3.2 3.2 0.00 0.00 0.00 76 1013.0
20260510033411 15 347 1.6 3.2 0.00 0.00 0.00 76 1012.9
20260510032912 15 350 3.2 3.2 0.00 0.00 0.00 75 1012.9
20260510032411 16 356 0.0 3.2 0.00 0.00 0.00 75 1012.7
20260510031911 16 0 0.0 1.6 0.00 0.00 0.00 75 1012.7
20260510031411 16 0 0.0 1.6 0.00 0.00 0.00 74 1012.8
20260510030911 16 333 0.0 3.2 0.00 0.00 0.00 74 1012.7
20260510030412 16 343 1.6 3.2 0.00 0.00 0.00 74 1012.7
20260510025911 16 331 0.0 3.2 0.00 0.00 0.00 73 1012.7
20260510025411 16 348 1.6 3.2 0.00 0.00 0.00 73 1012.6
20260510024912 17 1 0.0 4.8 0.00 0.00 0.00 74 1012.4
20260510024411 17 345 3.2 3.2 0.00 0.00 0.00 74 1012.2
20260510023911 17 3 1.6 4.8 0.00 0.00 0.00 71 1012.1
20260510023411 17 318 3.2 3.2 0.00 0.00 0.00 71 1012.0
20260510022911 16 321 0.0 1.6 0.00 0.00 0.00 73 1011.9
20260510022411 16 0 0.0 3.2 0.00 0.00 0.00 71 1011.8
20260510021911 16 339 3.2 3.2 0.00 0.00 0.00 74 1011.6
20260510021411 16 345 3.2 3.2 0.00 0.00 0.00 72 1011.6
20260510020911 17 347 1.6 3.2 0.00 0.00 0.00 73 1011.5
20260510020412 17 350 3.2 3.2 0.00 0.00 0.00 73 1011.3
20260510015912 17 345 1.6 3.2 0.00 0.00 0.00 72 1011.3
20260510015411 17 348 3.2 3.2 0.00 0.00 0.00 73 1011.2
20260510014911 17 358 1.6 4.8 0.00 0.00 0.00 72 1011.2
20260510014411 17 342 1.6 4.8 0.00 0.00 0.00 72 1011.2
20260510013911 17 355 3.2 4.8 0.00 0.00 0.00 71 1011.1
20260510013411 17 349 3.2 3.2 0.00 0.00 0.00 71 1011.0
20260510012912 18 352 3.2 3.2 0.00 0.00 0.00 71 1010.9
20260510012411 18 344 3.2 3.2 0.00 0.00 0.00 72 1010.8
20260510011911 18 345 1.6 3.2 0.00 0.00 0.00 71 1010.7
20260510011411 18 339 1.6 3.2 0.00 0.00 0.00 71 1010.7
20260510010911 19 348 1.6 3.2 0.00 0.00 0.00 70 1010.7
20260510010411 19 344 3.2 4.8 0.00 0.00 0.00 70 1010.6
20260510005911 20 345 3.2 4.8 0.00 0.00 0.00 68 1010.6
20260510005412 20 0 0.0 1.6 0.00 0.00 0.00 66 1010.6
20260510004912 21 4 0.0 3.2 0.00 0.00 0.00 65 1010.5
20260510004411 21 334 1.6 3.2 0.00 0.00 0.00 62 1010.5
20260510003912 22 349 3.2 4.8 0.00 0.00 0.00 60 1010.4
20260510003411 22 358 3.2 4.8 0.00 0.00 0.00 58 1010.5
20260510002911 23 353 3.2 3.2 0.00 0.00 0.00 55 1010.4
20260510002412 24 343 3.2 3.2 0.00 0.00 0.00 55 1010.4
20260510001912 24 353 0.0 3.2 0.00 0.00 0.00 55 1010.3
20260510001411 25 350 1.6 3.2 0.00 0.00 0.00 53 1010.3
20260510000912 25 327 1.6 3.2 0.00 0.00 0.00 54 1010.3
20260510000411 25 330 1.6 3.2 0.00 0.00 0.00 53 1010.3
20260509235912 26 338 3.2 3.2 0.00 0.00 0.00 51 1010.3
20260509235411 26 327 1.6 3.2 0.00 0.00 0.00 52 1010.3
20260509234911 26 316 3.2 4.8 0.00 0.00 0.00 49 1010.4
20260509234411 27 316 1.6 4.8 0.00 0.00 0.00 46 1010.4
20260509233912 28 324 0.0 4.8 0.00 0.00 0.00 44 1010.2
20260509233411 27 296 1.6 3.2 0.00 0.00 0.00 43 1010.2
20260509232911 27 332 1.6 9.7 0.00 0.00 0.00 45 1010.2
20260509232411 28 231 0.0 3.2 0.00 0.00 0.00 41 1010.3
20260509231911 27 342 0.0 4.8 0.00 0.00 0.00 41 1010.3
20260509231411 27 334 0.0 4.8 0.00 0.00 0.00 41 1010.4
20260509230911 27 342 3.2 4.8 0.00 0.00 0.00 40 1010.4
20260509230411 27 241 0.0 3.2 0.00 0.00 0.00 40 1010.4
20260509225911 28 334 0.0 8.0 0.00 0.00 0.00 38 1010.4
20260509225411 29 296 3.2 12.9 0.00 0.00 0.00 35 1010.3
20260509224911 30 344 3.2 12.9 0.00 0.00 0.00 33 1010.2
20260509224411 30 356 3.2 9.7 0.00 0.00 0.00 31 1010.2
20260509223911 30 290 1.6 8.0 0.00 0.00 0.00 32 1010.2
20260509223411 29 152 0.0 8.0 0.00 0.00 0.00 34 1010.2
20260509222912 29 324 4.8 11.3 0.00 0.00 0.00 35 1010.1
20260509222411 29 46 1.6 11.3 0.00 0.00 0.00 33 1010.2
20260509221912 29 14 4.8 11.3 0.00 0.00 0.00 33 1010.1
20260509221411 30 59 4.8 9.7 0.00 0.00 0.00 34 1010.1
20260509220911 30 78 1.6 12.9 0.00 0.00 0.00 32 1010.2
20260509220411 30 50 4.8 9.7 0.00 0.00 0.00 31 1010.1
20260509215911 30 318 3.2 11.3 0.00 0.00 0.00 31 1010.1
20260509215411 30 136 1.6 6.4 0.00 0.00 0.00 32 1010.2
20260509214912 30 52 3.2 6.4 0.00 0.00 0.00 32 1010.2
20260509214412 30 46 0.0 6.4 0.00 0.00 0.00 31 1010.3
20260509213912 30 29 1.6 9.7 0.00 0.00 0.00 31 1010.3
20260509213411 31 213 1.6 9.7 0.00 0.00 0.00 29 1010.3
20260509212911 30 51 1.6 9.7 0.00 0.00 0.00 30 1010.4
20260509212411 30 140 6.4 8.0 0.00 0.00 0.00 31 1010.4
20260509211911 30 135 3.2 8.0 0.00 0.00 0.00 30 1010.4
20260509211413 30 54 4.8 12.9 0.00 0.00 0.00 30 1010.5
20260509210911 31 101 4.8 11.3 0.00 0.00 0.00 30 1010.5
20260509210411 30 242 1.6 6.4 0.00 0.00 0.00 30 1010.5
20260509205911 30 14 1.6 8.0 0.00 0.00 0.00 31 1010.5
20260509205411 30 71 3.2 9.7 0.00 0.00 0.00 30 1010.5
20260509204912 30 101 4.8 14.5 0.00 0.00 0.00 31 1010.6
20260509204411 31 7 3.2 11.3 0.00 0.00 0.00 30 1010.5
20260509203911 31 13 6.4 11.3 0.00 0.00 0.00 31 1010.5
20260509203411 31 344 4.8 12.9 0.00 0.00 0.00 31 1010.5
20260509202911 30 350 4.8 11.3 0.00 0.00 0.00 31 1010.6
20260509202411 30 59 3.2 11.3 0.00 0.00 0.00 32 1010.7
20260509201911 30 144 3.2 4.8 0.00 0.00 0.00 31 1010.7
20260509201412 30 60 3.2 8.0 0.00 0.00 0.00 31 1010.8
20260509200911 31 132 1.6 9.7 0.00 0.00 0.00 30 1010.8
20260509200411 30 55 3.2 9.7 0.00 0.00 0.00 30 1010.8
20260509194411 28 104 3.2 8.0 0.00 0.00 0.00 32 1011.1
20260509193911 28 147 4.8 9.7 0.00 0.00 0.00 37 1011.1
20260509193411 28 150 4.8 8.0 0.00 0.00 0.00 33 1011.1
20260509192912 28 324 4.8 8.0 0.00 0.00 0.00 34 1011.1
20260509192411 27 296 1.6 6.4 0.00 0.00 0.00 40 1011.2
20260509191911 27 135 3.2 12.9 0.00 0.00 0.00 39 1011.7
20260509191411 27 168 6.4 12.9 0.00 0.00 0.00 40 1011.7
20260509190912 28 189 3.2 12.9 0.00 0.00 0.00 39 1011.3
20260509190412 27 151 4.8 14.5 0.00 0.00 0.00 39 1011.2
20260509185912 27 183 6.4 16.1 0.00 0.00 0.00 39 1011.2
20260509185412 28 164 11.3 16.1 0.00 0.00 0.00 40 1011.3
20260509184911 28 151 4.8 12.9 0.00 0.00 0.00 40 1011.3
20260509184411 27 159 8.0 11.3 0.00 0.00 0.00 40 1011.5
20260509183911 27 184 6.4 12.9 0.00 0.00 0.00 41 1011.5
20260509183411 27 156 6.4 12.9 0.00 0.00 0.00 42 1011.5
20260509182912 27 186 3.2 12.9 0.00 0.00 0.00 41 1011.3
20260509182411 27 252 3.2 14.5 0.00 0.00 0.00 42 1011.5
20260509181911 27 327 4.8 14.5 0.00 0.00 0.00 43 1011.3
20260509181411 27 313 8.0 12.9 0.00 0.00 0.00 43 1011.5
20260509180911 27 189 4.8 9.7 0.00 0.00 0.00 45 1011.3
20260509180411 27 127 3.2 14.5 0.00 0.00 0.00 44 1011.3
20260509175919 27 155 8.0 16.1 0.00 0.00 0.00 45 1011.5
20260509175411 27 175 8.0 12.9 0.00 0.00 0.00 44 1011.5
20260509174911 27 197 3.2 12.9 0.00 0.00 0.00 45 1011.5
20260509174412 26 165 4.8 14.5 0.00 0.00 0.00 48 1011.5
20260509173911 27 155 9.7 14.5 0.00 0.00 0.00 48 1011.6
20260509173411 26 159 4.8 14.5 0.00 0.00 0.00 52 1011.7
20260509172913 26 156 6.4 14.5 0.00 0.00 0.00 52 1011.7
20260509172411 26 169 9.7 16.1 0.00 0.00 0.00 54 1011.8
20260509171911 26 162 14.5 17.7 0.00 0.00 0.00 54 1011.8
20260509171412 26 160 11.3 17.7 0.00 0.00 0.00 54 1011.7
20260509170911 26 152 11.3 16.1 0.00 0.00 0.00 56 1011.7
20260509170412 26 187 6.4 14.5 0.00 0.00 0.00 58 1011.8
20260509165915 26 198 6.4 17.7 0.00 0.00 0.00 55 1011.8
20260509165411 25 171 4.8 14.5 0.00 0.00 0.00 59 1011.9
20260509164911 25 161 9.7 17.7 0.00 0.00 0.00 60 1011.9
20260509164411 25 152 9.7 16.1 0.00 0.00 0.00 62 1012.0
20260509163912 25 153 11.3 14.5 0.00 0.00 0.00 62 1011.9
20260509163411 25 149 6.4 14.5 0.00 0.00 0.00 63 1012.0
20260509162911 24 197 6.4 11.3 0.00 0.00 0.00 61 1012.0
20260509162411 23 289 3.2 16.1 0.00 0.00 0.00 64 1012.0
20260509161912 23 162 12.9 16.1 0.00 0.00 0.00 65 1012.0
20260509161412 23 160 9.7 16.1 0.00 0.00 0.00 66 1012.0
20260509160913 22 157 11.3 17.7 0.00 0.00 0.00 68 1012.0
20260509160411 23 168 8.0 16.1 0.00 0.00 0.00 68 1012.0
20260509155911 22 155 9.7 14.5 0.00 0.00 0.00 68 1012.0
20260509155411 22 163 8.0 14.5 0.00 0.00 0.00 69 1012.0
20260509154911 22 151 9.7 14.5 0.00 0.00 0.00 69 1012.0
20260509154411 22 165 9.7 14.5 0.00 0.00 0.00 68 1012.0
20260509153911 22 150 9.7 14.5 0.00 0.00 0.00 70 1012.0
20260509153411 22 158 9.7 14.5 0.00 0.00 0.00 71 1011.9
20260509152912 22 162 12.9 14.5 0.00 0.00 0.00 69 1011.9
20260509152411 22 152 6.4 11.3 0.00 0.00 0.00 66 1011.8
20260509151913 22 167 4.8 11.3 0.00 0.00 0.00 69 1011.8
20260509151413 22 156 6.4 12.9 0.00 0.00 0.00 70 1011.8
20260509150911 22 196 6.4 12.9 0.00 0.00 0.00 68 1011.9
20260509150411 23 201 4.8 9.7 0.00 0.00 0.00 64 1011.8
20260509145912 22 0 0.0 12.9 0.00 0.00 0.00 66 1011.8
20260509145414 22 156 9.7 12.9 0.00 0.00 0.00 67 1011.8
20260509144412 23 148 0.0 8.0 0.00 0.00 0.00 63 1011.9
20260509143913 23 228 3.2 6.4 0.00 0.00 0.00 64 1011.9
20260509143412 22 115 0.0 6.4 0.00 0.00 0.00 62 1011.8
20260509142913 21 304 3.2 8.0 0.00 0.00 0.00 67 1011.8
20260509142412 21 221 4.8 6.4 0.00 0.00 0.00 71 1011.8
20260509141911 21 218 3.2 6.4 0.00 0.00 0.00 70 1011.7
20260509141411 20 289 3.2 8.0 0.00 0.00 0.00 71 1011.6
20260509140913 20 221 1.6 8.0 0.00 0.00 0.00 74 1011.7
20260509140413 20 293 3.2 6.4 0.00 0.00 0.00 74 1011.7
20260509135911 19 312 1.6 6.4 0.00 0.00 0.00 74 1011.6
20260509135412 18 152 3.2 9.7 0.00 0.00 0.00 77 1011.6
20260509134912 18 151 6.4 9.7 0.00 0.00 0.00 78 1011.6
20260509134414 18 131 3.2 9.7 0.00 0.00 0.00 78 1011.5
20260509133912 18 137 4.8 8.0 0.00 0.00 0.00 76 1011.5
20260509133412 18 149 3.2 6.4 0.00 0.00 0.00 74 1011.3
20260509132911 17 10 0.0 8.0 0.00 0.00 0.00 77 1011.2
20260509132412 17 147 3.2 6.4 0.00 0.00 0.00 78 1011.2
20260509131912 16 132 3.2 6.4 0.00 0.00 0.00 81 1011.2
20260509131411 16 155 3.2 6.4 0.00 0.00 0.00 81 1011.2
20260509130911 15 149 3.2 6.4 0.00 0.00 0.00 83 1011.2
20260509130414 15 174 4.8 8.0 0.00 0.00 0.00 85 1011.2
20260509125911 14 151 4.8 8.0 0.00 0.00 0.00 86 1011.2
20260509125412 13 134 3.2 4.8 0.00 0.00 0.00 87 1011.2
20260509124911 13 238 1.6 4.8 0.00 0.00 0.00 87 1011.2
20260509124411 13 161 3.2 6.4 0.00 0.00 0.00 88 1011.1
20260509123911 13 150 4.8 6.4 0.00 0.00 0.00 90 1011.1
20260509123412 13 144 4.8 6.4 0.00 0.00 0.00 89 1011.0
20260509122912 13 160 3.2 6.4 0.00 0.00 0.00 89 1011.0
20260509122411 13 173 3.2 4.8 0.00 0.00 0.00 88 1010.9
20260509121911 12 64 0.0 3.2 0.00 0.00 0.00 90 1010.8
20260509121411 12 157 1.6 3.2 0.00 0.00 0.00 91 1010.8
20260509120912 11 154 0.0 4.8 0.00 0.00 0.00 93 1010.8
20260509120411 11 0 0.0 0.0 0.00 0.00 0.00 92 1010.7